This demonstration page uses our WeatherBlox Daily Observations layout. Learn more.

39.01783, -85.05884

Hourly Observations for January 9, 2019

Temp ( °F °C ) Dew Point ( °F °C ) Humidity (%) Winds ( mph kmh ) Pressure ( in mb ) Visibility ( mi km ) Precip ( " mm )
12:52 am 00:52 Mostly Cloudy 42 5.6 24 -4.4 49 49 W 16 26 29.97 1015 10 16.09344 0 0
1:52 am 01:52 Cloudy 41 5 23 -5 49 49 W 20 31 29.97 1015 10 16.09344 0 0
2:52 am 02:52 Cloudy 40 4.4 23 -5 51 51 W 20 31 30 1016 10 16.09344 0 0
3:52 am 03:52 Mostly Cloudy 35 1.7 21 -6.1 57 57 W 18 30 30.03 1017 10 16.09344 0 0
4:52 am 04:52 Cloudy 33 0.6 21 -6.1 61 61 WNW 23 37 30.03 1017 10 16.09344 0 0
5:52 am 05:52 Cloudy 30 -1.1 18 -7.8 61 61 WNW 23 37 30.06 1018 10 16.09344 0 0
6:52 am 06:52 Cloudy 29 -1.7 17 -8.3 61 61 WNW 22 35 30.09 1019 10 16.09344 0 0
7:45 am 07:45 Cloudy 28 -2.2 16 -8.9 60 60 WNW 20 31 30.18 1022 10 16.09344 0 0
7:52 am 07:52 Cloudy 28 -2.2 16 -8.9 60 60 NW 16 26 30.12 1020 10 16.09344 0 0
8:52 am 08:52 Cloudy 28 -2.2 16 -8.9 60 60 WNW 20 31 30.12 1020 10 16.09344 0 0
9:12 am 09:12 Cloudy 28 -2.2 16 -8.9 60 60 WNW 15 24 30.21 1023 10 16.09344 0 0
9:52 am 09:52 Cloudy 28 -2.2 15 -9.4 58 58 NW 18 30 30.18 1022 10 16.09344 0.001 0.001
10:52 am 10:52 Cloudy 28 -2.2 16 -8.9 60 60 WNW 15 24 30.18 1022 10 16.09344 0 0
11:52 am 11:52 Cloudy 27 -2.8 18 -7.8 69 69 WNW 16 26 30.15 1021 10 16.09344 0 0
12:39 pm 12:39 Cloudy 28 -2.2 14 -10 56 56 WNW 17 28 30.21 1023 10 16.09344 0 0
12:52 pm 12:52 Cloudy 28 -2.2 14 -10 56 56 W 18 30 30.15 1021 10 16.09344 0 0
1:52 pm 13:52 Cloudy 26 -3.3 14 -10 60 60 WNW 20 31 30.18 1022 10 16.09344 0 0
2:06 pm 14:06 Cloudy with Light Snow 27 -2.8 14 -10 58 58 WNW 18 30 30.24 1024 10 16.09344 0.001 0.001
2:52 pm 14:52 Cloudy 27 -2.8 13 -10.6 55 55 WNW 22 35 30.18 1022 10 16.09344 0.001 0.001
3:52 pm 15:52 Windy with Snow Likely 26 -3.3 15 -9.4 63 63 WNW 20 31 30.21 1023 7 11.265408 0.001 0.001
4:52 pm 16:52 Windy with Snow Likely 24 -4.4 13 -10.6 62 62 NW 21 33 30.21 1023 9 14.484096 0.001 0.001
5:52 pm 17:52 Cloudy 24 -4.4 12 -11.1 60 60 WNW 20 31 30.24 1024 10 16.09344 0.001 0.001
6:40 pm 18:40 Cloudy 24 -4.4 13 -10.6 62 62 WNW 14 22 30.3 1026 10 16.09344 0 0
6:52 pm 18:52 Cloudy with Light Snow 24 -4.4 13 -10.6 62 62 WNW 13 20 30.24 1024 7 11.265408 0.001 0.001
7:29 pm 19:29 Cloudy with Light Snow 23 -5 14 -10 68 68 WNW 16 26 30.3 1026 8 12.874752 0.001 0.001
7:52 pm 19:52 Cloudy 23 -5 14 -10 68 68 WNW 17 28 30.24 1024 10 16.09344 0.001 0.001
8:52 pm 20:52 Cloudy 23 -5 12 -11.1 63 63 NW 17 28 30.27 1025 10 16.09344 0 0
9:52 pm 21:52 Cloudy with Light Snow 23 -5 12 -11.1 63 63 WNW 14 22 30.27 1025 9 14.484096 0.001 0.001
10:52 pm 22:52 Cloudy with Light Snow 23 -5 12 -11.1 63 63 WNW 13 20 30.3 1026 8 12.874752 0.001 0.001
11:52 pm 23:52 Cloudy with Light Snow 22 -5.6 12 -11.1 66 66 WNW 14 22 30.3 1026 9 14.484096 0.001 0.001

Powered by AerisWeather